Weather History for Hailey, ID

Change the Weather History Date:

Thursday, November 22, 2012

  Actual Average Record
Temperature  
Mean Temperature 32 °F -  
Max Temperature 39 °F 39 °F 53 °F (2002)
Min Temperature 24 °F 21 °F 6 °F (2003)
Degree Days  
Heating Degree Days 34    
Moisture  
Dew Point 22 °F    
Average Humidity 71    
Maximum Humidity 86    
Minimum Humidity 48    
Precipitation  
Precipitation 0.00 in - - ()
Sea Level Pressure  
Sea Level Pressure 30.35 in    
Wind  
Wind Speed 5 mph (NW)    
Max Wind Speed 14 mph    
Max Gust Speed 16 mph    
Visibility 10 miles    
Events      
Averages and records for this station are not official NWS values.
T = Trace of Precipitation, MM = Missing Value Source: NWS Daily Summary

Daily Weather History Graph

Daily Weather History Graph

Search for Another Location

Airport:

Trip Planner

Search our weather history database for the weather conditions in past years. The results will help you decide how hot, cold, wet, or windy it might be!

Date:

Astronomy

Nov. 22, 2012 Rise Set
Actual Time 7:40 AM MST 5:06 PM MST
Civil Twilight 7:08 AM MST 5:37 PM MST
Nautical Twilight 6:33 AM MST 6:12 PM MST
Astronomical Twilight 5:59 AM MST 6:46 PM MST
Moon 2:01 PM MST (11/22) 1:55 AM MST (11/22)
Length of Visible Light 10h 28m
Length of Day
9h 25m
Waxing Gibbous, 72% of the Moon is Illuminated
Nov 22
Waxing Gibbous
Nov 28
Full
Dec 6
Last Quarter
Dec 13
New
Dec 19
First Quarter

Hourly Weather History & Observations

Time (MST) Temp. Windchill Dew Point Humidity Pressure Visibility Wind Dir Wind Speed Gust Speed Precip Events Conditions
12:15 AM 30.2 °F - 21.2 °F 69% 30.17 in 10.0 mi Calm Calm - N/A   Clear
12:35 AM 30.2 °F 26.7 °F 21.2 °F 69% 30.18 in 10.0 mi ESE 3.5 mph - N/A   Clear
12:55 AM 30.2 °F - 21.2 °F 69% 30.18 in 10.0 mi Calm Calm - N/A   Clear
1:15 AM 30.2 °F 25.4 °F 23.0 °F 75% 30.18 in 10.0 mi North 4.6 mph - N/A   Clear
1:35 AM 28.4 °F 23.3 °F 21.2 °F 74% 30.19 in 10.0 mi NNW 4.6 mph - N/A   Clear
1:55 AM 28.4 °F - 21.2 °F 74% 30.19 in 10.0 mi Calm Calm - N/A   Clear
2:15 AM 28.4 °F 24.6 °F 21.2 °F 74% 30.20 in 10.0 mi SE 3.5 mph - N/A   Clear
2:35 AM 28.4 °F - 21.2 °F 74% 30.21 in 10.0 mi Calm Calm - N/A   Clear
2:55 AM 28.4 °F 22.2 °F 23.0 °F 80% 30.22 in 10.0 mi North 5.8 mph - N/A   Clear
3:15 AM 28.4 °F 24.6 °F 23.0 °F 80% 30.23 in 10.0 mi NNW 3.5 mph - N/A   Scattered Clouds
3:35 AM 28.4 °F 23.3 °F 23.0 °F 80% 30.24 in 10.0 mi NNW 4.6 mph - N/A   Scattered Clouds
4:15 AM 28.4 °F 24.6 °F 21.2 °F 74% 30.24 in 10.0 mi NW 3.5 mph - N/A   Scattered Clouds
4:35 AM 28.4 °F 23.3 °F 21.2 °F 74% 30.24 in 10.0 mi NW 4.6 mph - N/A   Scattered Clouds
4:55 AM 26.6 °F 19.1 °F 23.0 °F 86% 30.25 in 10.0 mi NNW 6.9 mph - N/A   Clear
5:15 AM 28.4 °F 21.2 °F 21.2 °F 74% 30.26 in 10.0 mi NW 6.9 mph - N/A   Clear
5:35 AM 26.6 °F 18.2 °F 21.2 °F 80% 30.27 in 10.0 mi NW 8.1 mph - N/A   Clear
5:55 AM 28.4 °F 20.4 °F 21.2 °F 74% 30.27 in 10.0 mi NW 8.1 mph - N/A   Clear
6:47 AM 26.6 °F 18.2 °F 21.2 °F 80% 30.31 in 10.0 mi NW 8.1 mph - N/A   Clear
7:47 AM 24.8 °F 16.1 °F 19.4 °F 80% 30.34 in 10.0 mi WNW 8.1 mph - N/A   Partly Cloudy
8:47 AM 26.6 °F 17.5 °F 19.4 °F 74% 30.37 in 10.0 mi NW 9.2 mph - N/A   Clear
9:47 AM 28.4 °F 18.5 °F 19.4 °F 69% 30.39 in 10.0 mi NW 11.5 mph - N/A   Clear
10:47 AM 33.8 °F 25.3 °F 19.4 °F 56% 30.40 in 10.0 mi WNW 11.5 mph - N/A   Partly Cloudy
11:47 AM 35.6 °F 32.8 °F 19.4 °F 52% 30.40 in 10.0 mi WNW 3.5 mph - N/A   Scattered Clouds
12:47 PM 37.4 °F - 19.4 °F 48% 30.41 in 10.0 mi Calm Calm - N/A   Mostly Cloudy
1:47 PM 37.4 °F 34.9 °F 21.2 °F 52% 30.40 in 10.0 mi ESE 3.5 mph - N/A   Scattered Clouds
2:47 PM 39.2 °F 35.0 °F 21.2 °F 49% 30.41 in 10.0 mi SE 5.8 mph - N/A   Scattered Clouds
3:54 PM 37.4 °F 32.8 °F 21.2 °F 52% 30.41 in 10.0 mi SSE 5.8 mph - N/A   Partly Cloudy
4:55 PM 33.8 °F 28.6 °F 24.8 °F 70% 30.44 in 10.0 mi SE 5.8 mph - N/A   Scattered Clouds
5:50 PM 30.2 °F 26.7 °F 23.0 °F 75% 30.44 in 10.0 mi ESE 3.5 mph - N/A   Partly Cloudy
6:50 PM 30.2 °F - 24.8 °F 80% 30.46 in 10.0 mi Calm Calm - N/A   Clear
7:50 PM 30.2 °F 22.6 °F 23.0 °F 75% 30.48 in 10.0 mi West 8.1 mph - N/A   Clear
8:55 PM 30.2 °F 23.4 °F 23.0 °F 75% 30.49 in 10.0 mi WNW 6.9 mph - N/A   Clear
9:45 PM 28.4 °F 21.2 °F 21.2 °F 74% 30.50 in 10.0 mi WNW 6.9 mph - N/A   Clear
10:15 PM 30.2 °F 21.3 °F 21.2 °F 69% 30.50 in 10.0 mi NW 10.4 mph - N/A   Clear
10:35 PM 30.2 °F 22.6 °F 23.0 °F 75% 30.49 in 10.0 mi NNW 8.1 mph - N/A   Clear
10:47 PM 28.4 °F 18.0 °F 21.2 °F 74% 30.50 in 10.0 mi WNW 12.7 mph - N/A   Clear
10:55 PM 30.2 °F 20.8 °F 21.2 °F 69% 30.50 in 10.0 mi NW 11.5 mph - N/A   Clear
11:15 PM 28.4 °F 17.5 °F 21.2 °F 74% 30.50 in 10.0 mi NW 13.8 mph - N/A   Clear
11:35 PM 28.4 °F 19.1 °F 21.2 °F 74% 30.50 in 10.0 mi NW 10.4 mph - N/A   Clear
11:55 PM 28.4 °F 18.5 °F 21.2 °F 74% 30.51 in 10.0 mi NNW 11.5 mph 16.1 mph N/A   Clear